Welcome to the New NWS' Forecast!
Most changes are behind the scenes, but click here for differences you might notice.

Regional Weather Roundup (RWR)

Issued by National Weather Service (NWS)

                            
000
ASUS46 KSEW 162310
RWRWA 

WASHINGTON REGIONAL WEATHER ROUNDUP
NATIONAL WEATHER SERVICE SEATTLE WA
300 PM PST FRI NOV 16 2018

NOTE:"FAIR" INDICATES FEW OR NO CLOUDS BELOW 12,000 FEET WITH NO 
SIGNIFICANT WEATHER AND/OR OBSTRUCTIONS TO VISIBILITY.

WAZ507-509-555>559-170000-
SEATTLE, TACOMA, EVERETT, AND VICINITY
  
CITY           SKY/WX    TMP DP  RH WIND       PRES   REMARKS
EVERETT        CLOUDY    49  48  97 NW9       30.24S                  
BOEING FIELD   CLOUDY    53  45  74 N7        30.23S                  
RENTON         PTSUNNY   54  46  74 NW10      30.22S                  
SEATAC AIRPORT PTSUNNY   53  46  77 N13       30.22S                  
JBLM-MCCHORD   CLOUDY    52  51  99 N8        30.22S                  
PUYALLUP       CLOUDY    52  52 100 CALM      30.21S                  
BREMERTON      SUNNY     52  45  77 NE12      30.22S                  
JBLM-FT LEWIS  CLOUDY    52  52 100 N7        30.21S                  
TACOMA NARROWS MOSUNNY   51  46  83 N5        30.22F                  
$$
 
WAZ001-503-506-510-514-515-170000-
NORTH INTERIOR
  
CITY           SKY/WX    TMP DP  RH WIND       PRES   REMARKS
BELLINGHAM     SUNNY     56  35  45 N12G22    30.24S                  
FRIDAY HARBOR  SUNNY     52  43  71 N6        30.27R                  
EASTSOUND      SUNNY     50  48  93 NW9G15    30.25S                  
PORT ANGELES   CLOUDY    52  47  83 E6        30.27S                  
EDIZ HOOK      CLOUDY    50  47  90 CALM      30.27S                  
PORT TOWNSEND  PTSUNNY   50  48  93 MISG      30.24S                  
NAS WHIDBEY    NOT AVBL                                               
ARLINGTON      PTSUNNY   53  49  86 W8        30.24S                  
BURLINGTON     MOSUNNY   57  46  67 W5        30.24S                  
$$
 
WAZ020-022-039-040-504-511-512-170000-
SOUTHWEST INTERIOR
  
CITY           SKY/WX    TMP DP  RH WIND       PRES   REMARKS
SHELTON        PTSUNNY   55  47  74 N5        30.20S                  
OLYMPIA        CLOUDY    53  48  83 NE8       30.21F                  
CHEHALIS       CLOUDY    54  54 100 N10       30.20F                  
KELSO          CLOUDY    54  51  90 VRB3      30.19S                  
VANCOUVER      SUNNY     54  49  83 NW8       30.16F                  
SCAPPOOSE, OR  CLOUDY    54  50  86 W3        30.16F                  
PORTLAND, OR   PTSUNNY   55  49  80 W12       30.17F                  
$$
 
WAZ021-516-517-170000-
WASHINGTON COAST
  
CITY           SKY/WX    TMP DP  RH WIND       PRES   REMARKS
FORKS          SUNNY     55  47  74 NE6       30.21S                  
HOQUIAM        CLOUDY    58  51  78 NE6       30.19S                  
ASTORIA, OR    MOSUNNY   55  54  96 NW8       30.16F                  
$$
 
WAZ019-023-024-040-567>569-170000-
CASCADE MOUNTAINS AND COLUMBIA GORGE
  
CITY           SKY/WX    TMP DP  RH WIND       PRES   REMARKS
STAMPEDE PASS  PTSUNNY   44  40  85 CALM      30.17S                  
TROUTDALE, OR  PTSUNNY   56  49  77 N3        30.16F                  
HOOD RIVER, OR CLOUDY    54  37  54 CALM      30.18F                  
THE DALLES, OR CLOUDY    54  39  57 E8        30.20S                  
$$

WAZ026-027-041>044-520-521-170000-
EAST SLOPES
  
CITY           SKY/WX    TMP DP  RH WIND       PRES   REMARKS
OMAK           CLEAR     50  26  39 N21       30.26R                  
WENATCHEE      MOSUNNY   49  32  52 CALM      30.22S                  
ELLENSBURG     CLOUDY    53  31  42 SE10      30.20S                  
YAKIMA         CLOUDY    54  37  52 E3        30.21S                  
SUNNYSIDE ARPT CLOUDY    53  38  56 CALM      30.22                   
YAKIMA TC      MOCLDY    52  28  39 E10       30.19S                  
$$

WAZ028-034-035-170000-
COLUMBIA BASIN
  
CITY           SKY/WX    TMP DP  RH WIND       PRES   REMARKS
EPHRATA        MOSUNNY   52  25  35 N14       30.20F                  
MOSES LAKE     SUNNY     54  26  34 N9        30.21S                  
PASCO          PTSUNNY   55  37  50 N7        30.23S                  
RICHLAND ARPT  PTCLDY    56  34  44 N7        30.23S                  
HERMISTON, OR  CLOUDY    52  38  58 NE6       30.21R                  
$$

WAZ036>038-170000-
NORTHEAST WASHINGTON
  
CITY           SKY/WX    TMP DP  RH WIND       PRES   REMARKS
SPOKANE GEIGER PTCLDY    47  31  53 NE6       30.18R                  
SPOKANE FELTS  MOCLDY    48  34  58 E5        30.19S                  
FAIRCHILD AFB  CLEAR     46  31  56 NE8       30.17S                  
COEURDALENE,ID PTCLDY    43  34  70 N7        30.18R                  
DEER PARK      CLEAR     49  29  46 NE7       30.19R                  
$$

WAZ029>033-170000-
SOUTHEAST WASHINGTON
  
CITY           SKY/WX    TMP DP  RH WIND       PRES   REMARKS
PULLMAN        CLEAR     44  36  73 N9        30.18S                  
LEWISTON, ID   CLEAR     51  35  54 NW12      30.17S                  
WALLA WALLA    PTSUNNY   50  39  66 W5        30.20S                  
PENDLETON, OR  CLOUDY    49  38  65 NW8       30.19R                  
$$